User: anonymous
Location: Raven Hill Discovery Center
(45.1336°N, 85.0553°W)
Time: 09:44:07
(UTC-04:00)
Language:

Cosmos 1470 - Orbit

View from above orbital plane
View from above orbital plane
View from above satellite
View from above satellite

Ground track
Ground track

The orbit data is extracted from the following two-line orbital elements,

1 14147U 83061A   14233.84258094  .00000868  00000-0  55936-4 0   588
2 14147 082.5088 328.0468 0013138 211.6579 148.3860 15.07006261449384
Epoch (UTC): 21 August 2014 20:13:18
Eccentricity: 0.0013138
inclination: 82.5088°
perigee height: 536 km
apogee height: 554 km
right ascension of ascending node: 328.0468°
argument of perigee: 211.6579°
revolutions per day: 15.07006261
mean anomaly at epoch: 148.3860°
orbit number at epoch: 44938

The dashed part of the orbit path shows where the satellite is in the earth's shadow,  

DLR